Theta_e
310 312 320 319 324 324 326 324 332 343 345 343 337 333 334 338 340 331 330 329 332 343 343 344 342 340 341 340 341 340 335 335 338 334 334 336 335 336 334 333 338 332 332
309 312 314 319 324 325 327 327 330 343 344 341 339 335 333 335 338 332 325 326 329 341 346 345 344 341 341 340 340 338 335 334 333 329 325 322 329 330 335 337 339 335 335
307 310 319 317 322 328 329 327 334 341 340 339 334 337 336 329 339 336 329 331 334 342 345 343 342 343 341 341 340 338 336 331 330 330 326 318 318 319 326 331 340 337 336
310 310 316 315 319 327 331 330 331 339 343 338 334 331 327 322 327 335 338 342 343 345 346 342 341 340 339 338 338 342 339 337 331 329 330 326 325 318 323 333 338 340 337
308 311 316 318 320 327 328 331 330 342 342 343 337 331 327 329 325 328 332 334 335 340 345 343 343 341 340 340 338 337 338 337 334 331 328 327 327 328 326 323 327 334 337
308 311 317 319 319 322 327 328 333 339 343 342 342 336 330 326 327 331 334 335 334 334 335 341 341 342 340 338 338 338 336 336 335 334 331 329 326 324 323 322 324 325 330
305 308 312 315 317 317 323 328 332 336 344 342 339 341 340 330 330 331 331 330 329 332 333 334 335 339 340 340 339 337 336 335 333 333 333 333 329 330 330 324 324 322 327
307 309 312 315 317 318 323 329 331 335 340 343 342 340 340 342 337 333 332 328 325 329 336 338 338 336 336 336 337 335 334 335 334 333 333 332 332 330 330 328 323 320 321
308 310 313 314 316 320 323 329 329 329 331 333 334 338 340 336 334 334 333 328 326 328 329 330 329 330 331 331 329 331 331 331 333 333 333 333 333 333 332 332 328 322 316
310 311 314 313 315 322 324 328 328 328 329 331 332 333 334 334 332 333 330 326 322 323 323 324 326 324 325 326 326 326 328 329 329 331 330 330 332 333 332 331 329 326 322
309 311 313 315 317 321 325 326 327 328 329 331 332 331 332 333 331 331 331 327 327 324 322 323 323 323 322 323 323 324 325 326 325 326 329 329 330 330 331 331 331 328 325
310 312 312 315 316 315 317 318 320 326 327 327 329 328 330 330 329 330 328 328 325 324 323 323 322 323 322 320 321 322 323 321 321 322 325 327 333 329 329 328 328 329 325
309 311 311 312 314 315 316 316 315 316 315 317 320 324 327 328 328 328 328 328 327 325 324 323 322 321 320 318 318 319 318 318 318 319 321 323 326 326 326 327 328 327 327
310 310 312 312 313 316 314 317 316 318 318 316 316 315 319 325 327 328 328 328 327 325 323 322 323 322 320 319 318 317 316 315 317 318 319 320 323 324 326 327 327 328 325
309 310 310 312 311 314 317 315 315 318 316 314 314 314 315 318 327 328 328 328 326 325 324 323 323 321 320 321 318 318 317 316 315 316 320 321 322 324 324 327 326 327 323
308 309 313 313 314 315 315 316 314 314 316 313 313 314 315 316 317 321 326 328 327 327 324 323 322 320 323 315 312 316 316 317 317 315 315 315 319 319 318 318 317 325 322
305 308 311 313 313 313 314 313 314 315 313 312 312 313 313 314 315 316 319 323 322 321 323 321 321 320 320 312 308 309 312 315 314 314 314 315 319 316 317 318 316 314 314
305 305 306 310 310 311 312 312 312 312 312 311 311 312 312 312 312 314 313 317 317 319 322 322 322 320 321 311 309 310 311 312 314 315 315 315 315 315 317 318 320 323 322
307 307 308 307 309 309 310 311 310 309 310 309 310 310 311 310 310 310 310 311 313 314 315 318 319 319 320 310 308 309 313 314 313 316 317 316 315 311 307 314 316 320 322
307 307 308 308 307 307 310 310 308 309 307 308 309 309 309 308 307 308 308 309 311 313 315 315 315 315 319 309 306 308 317 316 314 313 314 310 313 307 305 312 316 318 318
302 302 303 303 303 306 307 305 304 304 307 308 308 307 306 305 305 304 304 304 306 307 308 310 310 313 313 314 305 304 315 316 314 313 311 313 306 303 301 301 315 318 320
301 302 301 300 301 304 303 301 300 303 304 304 304 303 303 304 305 301 301 302 302 303 304 305 307 311 312 307 306 302 302 310 316 315 312 310 303 302 299 299 301 302 308
299 300 299 298 298 300 299 297 298 301 302 301 300 301 302 302 302 301 301 302 301 301 301 302 303 306 311 312 304 303 300 301 308 315 311 305 302 301 300 299 298 299 317
298 297 296 296 296 297 298 298 298 299 298 297 298 299 300 301 302 303 301 300 300 300 301 301 301 302 306 309 309 310 308 303 307 308 309 307 305 303 306 305 304 312 321
295 295 295 294 295 296 296 297 297 298 296 296 297 298 299 299 299 300 299 299 301 301 301 302 302 301 301 305 304 305 311 312 309 308 307 306 305 306 309 311 311 315 318
293 293 293 293 293 295 295 296 297 297 296 295 296 296 297 297 297 297 297 296 295 295 295 294 296 300 298 297 296 297 297 297 296 304 305 306 308 308 309 310 310 314 314
Wind_Speed
11 10 11 10 9 8 10 10 10 9 7 3 4 3 4 4 10 9 12 13 12 12 10 7 3 0 2 3 2 2 2 3 3 4 2 3 5 2 7 7 6 12 12
10 9 10 9 10 10 10 9 10 11 8 6 4 4 3 3 10 8 8 7 10 6 7 6 5 5 3 3 2 1 1 1 1 1 1 3 3 2 5 6 8 7 9
12 9 9 10 10 10 10 9 9 10 9 8 4 3 3 4 7 6 5 5 7 8 8 8 6 6 5 4 5 4 5 2 1 2 4 1 4 1 5 6 7 8 5
8 8 11 10 11 10 10 9 8 9 9 9 5 6 5 4 6 10 7 9 12 11 8 8 7 7 5 5 4 4 4 3 3 1 2 2 4 3 4 2 1 5 7
11 11 12 13 9 11 12 11 10 8 8 8 8 6 5 4 4 3 8 6 7 9 10 9 8 7 5 5 5 3 5 4 3 3 2 4 3 4 5 8 4 2 4
10 10 12 15 14 11 10 11 11 8 9 9 8 9 9 7 4 4 6 7 5 5 7 7 7 7 6 5 4 4 4 4 3 2 3 4 3 2 3 3 3 4 3
6 7 9 9 9 9 9 9 11 9 9 10 8 8 8 8 9 7 5 7 4 3 6 6 6 4 6 6 4 3 3 4 3 4 4 3 3 3 3 3 3 4 3
5 8 9 9 9 8 12 11 9 6 8 8 8 7 8 5 5 6 5 5 5 6 7 7 7 7 6 5 3 2 4 4 4 6 5 3 4 3 4 4 3 2 2
7 7 9 9 9 9 11 11 9 7 7 6 5 5 5 6 6 6 6 4 4 5 8 8 8 7 6 5 3 2 3 3 4 6 5 4 4 4 3 3 4 5 3
21 22 5 7 7 12 11 15 11 10 8 8 7 6 6 6 4 5 7 7 6 6 8 8 8 7 6 5 3 2 3 3 3 4 4 4 3 4 4 3 3 4 5
11 15 27 5 8 9 10 9 9 9 7 8 8 8 7 7 5 4 4 6 5 7 8 8 8 7 5 4 4 4 5 5 5 5 6 6 5 4 4 3 3 3 4
13 16 13 24 17 17 10 1 7 10 10 7 9 10 9 9 8 7 6 4 4 4 6 6 6 5 6 5 6 6 4 4 5 7 5 7 4 6 5 4 6 5 4
6 8 10 13 13 16 15 10 16 6 4 6 4 4 6 8 10 10 10 9 8 7 6 5 5 6 6 6 6 7 6 6 6 6 6 6 5 6 4 5 5 4 3
4 1 4 8 7 7 10 10 10 11 7 8 9 8 6 7 8 11 10 11 10 9 8 7 7 7 6 6 7 6 7 6 6 6 6 5 5 6 7 6 6 5 4
6 6 4 6 7 10 5 3 6 3 2 6 8 5 6 7 4 5 8 8 8 8 8 8 7 7 7 6 7 7 7 7 7 7 7 5 5 6 7 4 6 6 4
15 4 5 6 8 9 5 11 7 6 4 5 4 3 5 4 4 3 5 5 7 7 8 7 8 8 5 10 12 9 7 8 7 7 7 6 7 8 9 12 10 9 6
14 14 9 6 5 3 6 4 9 9 8 3 4 4 3 3 1 2 2 4 3 5 4 5 6 8 8 12 11 12 6 7 7 8 6 6 5 7 7 8 9 6 9
11 12 12 6 1 3 6 7 8 8 5 3 5 6 4 6 3 3 5 6 3 7 7 10 16 8 8 13 15 16 8 7 8 8 8 8 8 7 7 8 8 7 6
2 3 10 13 9 8 9 7 8 7 7 4 6 6 7 6 4 5 6 5 5 6 7 7 11 12 13 15 17 13 7 9 9 9 8 8 7 10 11 7 10 10 6
7 8 8 10 13 10 8 11 15 15 7 7 8 7 4 3 3 2 4 4 5 6 5 6 6 10 12 13 16 13 8 10 7 7 8 13 10 12 14 9 9 10 6
6 6 4 5 4 5 4 5 6 6 5 6 6 6 5 4 4 4 2 3 5 5 6 6 6 7 7 8 15 16 9 9 7 7 5 6 13 14 15 12 9 13 7
7 9 10 7 6 5 5 6 5 6 7 6 6 6 5 5 5 6 6 5 7 10 10 10 10 8 9 10 12 14 15 11 10 9 6 6 13 14 11 5 12 16 9
8 7 9 9 7 5 3 5 4 6 5 6 6 6 6 6 6 6 7 7 7 8 9 10 11 11 10 9 14 15 15 17 9 8 10 13 15 14 8 7 10 5 8
14 11 11 12 12 7 6 7 6 6 7 10 11 10 11 11 11 9 9 10 11 11 12 12 12 11 10 10 5 7 9 16 14 12 9 9 10 12 8 5 4 5 8
13 12 12 12 13 11 11 11 13 12 12 12 12 12 11 12 11 12 11 12 13 12 12 11 11 11 11 10 7 5 6 9 10 6 5 6 6 8 7 5 4 6 5
14 14 15 16 16 15 15 14 13 13 14 14 12 11 10 10 10 11 11 15 17 17 18 17 14 11 12 7 7 4 0 7 11 3 5 6 8 9 9 8 8 8 9
Wind_Direction
219 219 201 192 173 159 155 160 138 162 140 137 140 131 173 178 129 152 157 172 172 188 198 213 207 205 195 247 221 100 73 315 31 2 34 141 146 211 201 194 233 201 199
224 213 192 180 163 166 164 162 159 161 161 155 170 156 159 198 145 164 168 177 163 160 196 173 194 190 194 237 285 137 214 248 107 167 310 345 11 206 237 245 230 221 198
216 199 157 155 144 156 166 170 170 163 165 171 145 119 91 78 121 162 167 207 177 197 175 179 170 184 175 190 213 206 186 192 211 186 148 71 232 239 224 204 217 209 205
200 178 167 164 159 170 160 163 172 170 176 171 161 154 155 153 163 173 179 185 190 179 166 181 167 175 176 196 214 204 186 150 227 322 211 195 149 186 306 334 213 248 226
187 175 169 169 173 158 165 172 177 182 184 167 171 168 162 167 175 140 157 167 170 169 177 177 172 170 174 191 207 222 200 187 167 188 194 219 213 228 242 282 281 140 185
171 166 166 171 180 171 166 169 166 181 185 179 181 173 177 182 156 135 144 166 168 168 167 171 172 176 173 186 216 206 206 211 204 201 213 194 190 241 205 262 286 262 250
189 178 138 134 142 161 171 173 166 177 178 182 180 182 183 185 178 156 170 157 162 177 196 164 158 154 167 179 184 193 222 234 204 215 242 219 208 200 196 170 257 253 289
160 151 148 144 148 165 163 164 155 151 166 176 191 179 186 178 179 165 165 181 169 177 171 159 154 152 152 159 169 200 220 224 228 239 233 247 236 210 214 191 180 306 353
288 152 161 158 165 142 137 141 141 160 165 173 153 160 163 162 169 173 150 162 161 144 140 143 149 155 155 153 142 189 246 242 236 232 239 235 249 242 234 189 173 166 209
14 351 201 184 168 157 148 155 157 170 180 174 176 185 182 177 167 188 191 170 156 139 146 151 152 156 162 158 164 227 266 263 278 250 232 246 247 253 254 238 207 177 189
357 6 10 163 149 141 141 142 150 164 179 175 169 164 172 178 162 181 178 174 162 159 155 154 155 162 164 189 193 221 246 261 275 279 252 248 239 241 242 243 244 221 165
7 6 28 14 11 6 22 105 176 174 177 184 182 183 181 175 168 174 191 165 159 152 155 156 160 176 192 195 202 215 235 248 271 280 279 267 247 233 234 224 233 233 214
12 21 7 23 11 12 335 35 342 324 100 117 154 210 211 183 183 179 181 178 173 182 184 174 187 199 203 200 213 207 219 237 247 256 266 274 272 265 236 228 224 233 232
181 273 41 57 12 349 328 341 320 333 40 71 68 59 8 261 201 188 184 181 176 171 179 188 197 208 213 212 219 214 219 229 239 250 254 263 264 255 251 240 223 223 238
203 183 192 129 95 21 333 350 320 125 12 33 63 44 31 4 297 191 177 173 168 176 178 183 203 209 207 216 220 226 222 221 237 257 254 253 268 284 262 245 257 217 206
346 318 217 188 126 111 27 352 326 328 37 20 24 35 51 14 15 2 279 183 179 191 177 201 192 206 213 221 218 212 222 231 221 224 244 261 288 296 283 272 238 229 187
7 5 20 47 49 87 115 126 311 315 319 343 317 337 340 284 289 307 292 204 150 243 308 266 218 208 207 217 230 237 228 221 219 219 225 245 252 274 286 289 286 260 231
4 345 332 343 82 216 236 207 205 223 247 298 321 298 292 276 277 254 234 227 226 212 202 218 245 225 221 217 226 234 225 226 220 214 213 215 235 247 253 279 286 264 236
224 239 286 326 320 313 310 281 259 265 245 230 253 256 262 274 313 299 276 249 209 218 215 208 217 220 230 215 221 222 214 230 227 220 211 209 225 240 241 254 269 270 235
222 228 235 225 240 251 215 241 244 252 238 235 228 235 255 318 340 331 352 336 332 296 280 257 238 236 237 214 214 211 219 232 233 223 215 215 215 229 243 232 246 263 233
313 313 288 278 296 334 342 331 338 341 338 352 350 4 9 5 315 298 292 308 314 324 310 296 277 260 246 234 217 214 210 224 228 220 210 210 218 232 246 234 242 242 203
304 307 297 281 277 286 296 298 304 309 314 316 308 308 295 281 279 274 271 263 262 271 274 276 276 272 255 228 228 211 203 220 227 225 209 205 214 236 242 258 237 251 174
307 308 302 295 283 293 335 301 261 291 304 306 288 275 260 245 245 256 268 270 253 254 263 263 263 260 258 248 224 216 207 219 222 228 219 201 209 228 249 236 249 228 217
306 311 311 306 299 303 297 270 299 308 291 276 269 265 261 263 263 252 250 256 256 257 253 253 260 260 258 250 236 220 225 230 234 244 239 231 225 206 202 162 188 213 210
302 300 298 295 290 293 292 293 290 288 277 273 273 270 266 264 262 255 251 249 247 244 250 252 249 249 250 247 242 225 237 241 219 191 213 218 199 206 197 185 184 204 205
300 297 290 286 286 286 283 281 278 277 274 271 268 263 261 258 253 253 257 243 244 249 254 258 254 263 274 239 194 215 299 255 260 167 182 195 207 205 195 192 192 212 201